Location: Paderno d�Adda
(45.6667°N, 9.4333°E)
Time: 05:47:00
(UTC+00:00)

Cosmos 1125 Rocket - Pass Details

Date: 18 January 2021
Orbit: 757 x 781 km, 74.0° (Epoch: 05 March)

Event Time Altitude Azimuth Distance (km) Brightness Sun altitude
Rises 05:25:06 0° 346° (NNW) 3,260 6.5 -15.8°
Reaches altitude 10° 05:27:53 10° 360° (N) 2,333 5.9 -15.3°
Maximum altitude 05:32:17 26° 56° (NE) 1,506 5.5 -14.6°
Drops below altitude 10° 05:36:40 10° 112° (ESE) 2,330 7.4 -13.8°
Sets 05:39:26 0° 125° (SE) 3,256 8.2 -13.4°
